Weather History for Orange, MA

Change the Weather History Date:

Friday, March 2, 2012

  Actual Average Record
Temperature  
Mean Temperature 26 °F -  
Max Temperature 30 °F 36 °F 55 °F (2004)
Min Temperature 21 °F 18 °F 10 °F (2001)
Degree Days  
Heating Degree Days 40    
Moisture  
Dew Point 24 °F    
Average Humidity 88    
Maximum Humidity 100    
Minimum Humidity 81    
Precipitation  
Precipitation 0.03 in - - ()
Sea Level Pressure  
Sea Level Pressure 30.07 in    
Wind  
Wind Speed 4 mph (SE)    
Max Wind Speed 8 mph    
Max Gust Speed -    
Visibility 8 miles    
Events Fog , Snow    
Averages and records for this station are not official NWS values.
T = Trace of Precipitation, MM = Missing Value Source: NWS Daily Summary

Daily Weather History Graph

Daily Weather History Graph

Search for Another Location

Airport:

Trip Planner

Search our weather history database for the weather conditions in past years. The results will help you decide how hot, cold, wet, or windy it might be!

Date:

Astronomy

Mar. 02, 2012 Rise Set
Actual Time 6:22 AM EST 5:40 PM EST
Civil Twilight 5:54 AM EST 6:08 PM EST
Nautical Twilight 5:21 AM EST 6:41 PM EST
Astronomical Twilight 4:48 AM EST 7:14 PM EST
Moon 11:44 AM EST (3/2) 2:15 AM EST (3/2)
Length of Visible Light 12h 14m
Length of Day
11h 18m
Waxing Gibbous, 66% of the Moon is Illuminated
Mar 2
Waxing Gibbous
Mar 8
Full
Mar 14
Last Quarter
Mar 22
New
Mar 30
First Quarter

Hourly Weather History & Observations

Time (EST) Temp. Windchill Dew Point Humidity Pressure Visibility Wind Dir Wind Speed Gust Speed Precip Events Conditions
12:52 AM 23.0 °F 17.0 °F 18.0 °F 81% 30.05 in 10.0 mi North 4.6 mph - N/A   Overcast
1:52 AM 23.0 °F 17.0 °F 18.0 °F 81% 30.07 in 10.0 mi NNW 4.6 mph - N/A   Overcast
2:52 AM 21.9 °F 15.7 °F 18.0 °F 85% 30.08 in 10.0 mi NNW 4.6 mph - N/A   Overcast
3:52 AM 21.9 °F 17.2 °F 18.0 °F 85% 30.09 in 10.0 mi North 3.5 mph - N/A   Overcast
4:17 AM 21.2 °F 16.4 °F 17.6 °F 86% 30.08 in 10.0 mi NNW 3.5 mph - N/A   Overcast
4:52 AM 21.9 °F 17.2 °F 18.0 °F 85% 30.10 in 10.0 mi North 3.5 mph - N/A   Overcast
5:52 AM 21.9 °F 15.7 °F 18.0 °F 85% 30.12 in 10.0 mi North 4.6 mph - N/A   Overcast
6:52 AM 21.9 °F 17.2 °F 19.0 °F 89% 30.13 in 10.0 mi North 3.5 mph - N/A   Overcast
7:52 AM 23.0 °F - 19.0 °F 85% 30.14 in 10.0 mi Calm Calm - N/A   Overcast
8:52 AM 24.1 °F - 19.9 °F 84% 30.14 in 10.0 mi Calm Calm - N/A   Overcast
9:52 AM 25.0 °F - 21.9 °F 88% 30.15 in 10.0 mi Calm Calm - N/A   Overcast
10:52 AM 26.1 °F - 21.9 °F 84% 30.14 in 10.0 mi Calm Calm - N/A   Overcast
11:52 AM 27.0 °F 21.6 °F 23.0 °F 85% 30.14 in 10.0 mi SSW 4.6 mph - N/A   Overcast
12:52 PM 28.0 °F 20.8 °F 24.1 °F 85% 30.13 in 10.0 mi SSW 6.9 mph - N/A   Overcast
1:27 PM 28.4 °F 23.3 °F 24.8 °F 86% 30.10 in 10.0 mi South 4.6 mph - N/A   Overcast
1:52 PM 28.9 °F 21.9 °F 24.1 °F 82% 30.12 in 10.0 mi South 6.9 mph - N/A   Overcast
2:03 PM 28.4 °F 20.4 °F 24.8 °F 86% 30.08 in 10.0 mi South 8.1 mph - N/A   Overcast
2:52 PM 30.0 °F 24.1 °F 25.0 °F 82% 30.09 in 10.0 mi SSE 5.8 mph - N/A   Overcast
3:52 PM 30.0 °F 26.5 °F 26.1 °F 85% 30.10 in 10.0 mi South 3.5 mph - N/A   Overcast
4:52 PM 30.0 °F - 26.1 °F 85% 30.08 in 10.0 mi Calm Calm - N/A   Overcast
5:52 PM 30.0 °F 26.5 °F 26.1 °F 85% 30.09 in 10.0 mi SE 3.5 mph - N/A   Overcast
6:44 PM 28.4 °F 24.6 °F 26.6 °F 93% 30.06 in 5.0 mi SE 3.5 mph - N/A   Overcast
6:52 PM 28.9 °F 23.9 °F 27.0 °F 92% 30.08 in 5.0 mi SE 4.6 mph - N/A   Overcast
7:10 PM 28.4 °F 22.2 °F 26.6 °F 93% 30.04 in 10.0 mi SE 5.8 mph - N/A   Overcast
7:52 PM 28.9 °F 25.2 °F 27.0 °F 92% 30.07 in 5.0 mi SSE 3.5 mph - 0.00 in Snow Light Snow
8:03 PM 28.4 °F 24.6 °F 26.6 °F 93% 30.05 in 2.0 mi SE 3.5 mph - 0.00 in Snow Light Snow
8:15 PM 28.4 °F 23.3 °F 26.6 °F 93% 30.05 in 1.8 mi ESE 4.6 mph - 0.00 in Snow Light Snow
8:35 PM 28.4 °F 23.3 °F 26.6 °F 93% 30.03 in 3.0 mi SE 4.6 mph - 0.00 in Snow Light Snow
8:52 PM 30.0 °F 25.2 °F 27.0 °F 88% 30.05 in 10.0 mi SE 4.6 mph - 0.00 in   Overcast
9:52 PM 30.0 °F 24.1 °F 27.0 °F 88% 30.01 in 10.0 mi SSE 5.8 mph - N/A   Overcast
10:52 PM 30.0 °F 24.1 °F 27.0 °F 88% 29.99 in 10.0 mi SE 5.8 mph - 0.00 in   Overcast
11:46 PM 28.4 °F 24.6 °F 28.4 °F 100% 29.93 in 1.8 mi ESE 3.5 mph - 0.03 in Snow Light Snow
11:47 PM 28.9 °F 25.2 °F 28.0 °F 96% 29.96 in 1.5 mi SE 3.5 mph - 0.03 in Snow Light Snow
11:49 PM 28.4 °F 23.3 °F 28.4 °F 100% 29.93 in 1.0 mi ESE 4.6 mph - 0.00 in Snow Light Snow
11:58 PM 28.4 °F 22.2 °F 28.4 °F 100% 29.91 in 0.5 mi East 5.8 mph - 0.02 in Fog , Snow Snow